Location: Misciano
(43.5000°N, 11.9500°E)
Time: 10:11:10
(UTC+00:00)

Spot 2 Rocket - Pass Details

Date: 13 August 2020
Orbit: 756 x 773 km, 98.6° (Epoch: 20 September)

Event Time Altitude Azimuth Distance (km) Brightness Sun altitude
Exits shadow 20:25:34 35° 172° (S) 1,239 4.1 -20.2°
Maximum altitude 20:27:49 82° 256° (WSW) 783 3.5 -20.5°
Drops below altitude 10° 20:32:57 10° 345° (NNW) 2,318 6.9 -21.1°
Sets 20:35:15 0° 346° (NNW) 3,246 7.8 -21.4°
